CFG6AF EDDL-LEPA

Flight info

Callsign CFG6AF
Flight time N/A
Altitude 24000
Route MODRU7Z/05R MODRU Z283 LNO/N0453F330 Z283 RITAX UT27 ROUSY DCT GTQ DCT POGOL DCT LASAT DCT MOROK DCT GILIR DCT GEVEA DCT INCUS DCT BALSI DCT RETNO DCT TUPOX DCT MTG DCT DIVKO DCT VATIR N852 VERSO L129 LUNIK
Aircraft A321/M-SDE3FGHIRWY/LB1

Departure

Time 2026-05-05 13:45
Airport Düsseldorf Airport (EDDL)

Arrival

Time N/A
Airport Palma de Mallorca Airport (LEPA)
Time Latitude Longitude Altitude Speed Heading
2026-05-05 13:15 51.28066 6.76289 131 ft 0 kts 185°
2026-05-05 13:33 51.28085 6.76293 126 ft 4 kts 193°
2026-05-05 13:34 51.28109 6.76309 127 ft 4 kts 224°
2026-05-05 13:34 51.28124 6.76338 128 ft 4 kts 252°
2026-05-05 13:34 51.28123 6.76375 128 ft 4 kts 304°
2026-05-05 13:34 51.28105 6.76405 126 ft 4 kts 325°
2026-05-05 13:35 51.28089 6.76422 128 ft 0 kts 326°
2026-05-05 13:38 51.28118 6.76381 127 ft 13 kts 309°
2026-05-05 13:38 51.28134 6.76340 126 ft 1 kts 300°
2026-05-05 13:38 51.28138 6.76330 128 ft 3 kts 301°
2026-05-05 13:38 51.28178 6.76263 127 ft 11 kts 320°
2026-05-05 13:39 51.28196 6.76164 125 ft 10 kts 242°
2026-05-05 13:39 51.28155 6.76076 125 ft 11 kts 233°
2026-05-05 13:39 51.28114 6.75988 129 ft 9 kts 233°
2026-05-05 13:39 51.28080 6.75916 126 ft 7 kts 232°
2026-05-05 13:40 51.28033 6.75817 126 ft 16 kts 233°
2026-05-05 13:40 51.27993 6.75732 128 ft 0 kts 233°
2026-05-05 13:40 51.27980 6.75705 125 ft 9 kts 232°
2026-05-05 13:41 51.27938 6.75616 127 ft 6 kts 239°
2026-05-05 13:41 51.27940 6.75601 128 ft 1 kts 281°
2026-05-05 13:41 51.27942 6.75587 127 ft 1 kts 289°
2026-05-05 13:41 51.27945 6.75578 125 ft 0 kts 300°
2026-05-05 13:42 51.27946 6.75578 125 ft 0 kts 301°
2026-05-05 13:43 51.27947 6.75576 125 ft 2 kts 302°
2026-05-05 13:43 51.28003 6.75516 125 ft 14 kts 336°
2026-05-05 13:43 51.28076 6.75474 124 ft 8 kts 360°
2026-05-05 13:44 51.28101 6.75498 124 ft 5 kts 47°
2026-05-05 13:44 51.28141 6.75581 126 ft 28 kts 52°
2026-05-05 13:44 51.28413 6.76148 127 ft 98 kts 52°
2026-05-05 13:44 51.28919 6.77203 126 ft 148 kts 52°
2026-05-05 13:45 51.29637 6.78689 418 ft 166 kts 50°
2026-05-05 13:45 51.30313 6.80136 1209 ft 160 kts 51°
2026-05-05 13:45 51.31004 6.81604 1705 ft 173 kts 51°
2026-05-05 13:45 51.31770 6.83221 1874 ft 191 kts 51°
2026-05-05 13:46 51.32606 6.84988 1999 ft 213 kts 51°
2026-05-05 13:46 51.33557 6.86998 2262 ft 233 kts 53°
2026-05-05 13:46 51.34679 6.89021 2646 ft 250 kts 39°
2026-05-05 13:46 51.36158 6.90487 3273 ft 259 kts 22°
2026-05-05 13:47 51.37921 6.91217 3968 ft 264 kts
2026-05-05 13:47 51.39747 6.91704 4671 ft 269 kts
2026-05-05 13:47 51.41133 6.92073 5158 ft 273 kts
2026-05-05 13:48 51.42555 6.92450 5649 ft 277 kts
2026-05-05 13:48 51.43207 6.92621 5846 ft 280 kts
2026-05-05 13:48 51.45140 6.93134 6494 ft 284 kts
2026-05-05 13:49 51.47119 6.93352 7129 ft 286 kts 352°
2026-05-05 13:49 51.49017 6.92377 7702 ft 290 kts 327°
2026-05-05 13:49 51.50507 6.90243 8327 ft 289 kts 303°
2026-05-05 13:49 51.51360 6.87346 8971 ft 287 kts 281°
2026-05-05 13:50 51.51471 6.84206 9598 ft 285 kts 258°
2026-05-05 13:50 51.50810 6.81229 10171 ft 284 kts 236°
2026-05-05 13:50 51.49505 6.78827 10527 ft 294 kts 222°
2026-05-05 13:50 51.47958 6.76512 10656 ft 314 kts 221°
2026-05-05 13:51 51.46299 6.74076 10772 ft 333 kts 221°
2026-05-05 13:51 51.44527 6.71492 10918 ft 352 kts 221°
2026-05-05 13:51 51.42674 6.68789 11032 ft 369 kts 221°
2026-05-05 13:51 51.40747 6.65967 11432 ft 378 kts 221°
2026-05-05 13:52 51.38801 6.63099 11976 ft 382 kts 221°
2026-05-05 13:52 51.36871 6.60245 12552 ft 383 kts 222°
2026-05-05 13:52 51.34902 6.57339 13130 ft 386 kts 221°
2026-05-05 13:52 51.32925 6.54420 13647 ft 389 kts 221°
2026-05-05 13:53 51.30923 6.51467 14163 ft 392 kts 222°
2026-05-05 13:53 51.28909 6.48504 14599 ft 395 kts 221°
2026-05-05 13:53 51.26877 6.45523 15059 ft 398 kts 221°
2026-05-05 13:53 51.24833 6.42528 15534 ft 400 kts 221°
2026-05-05 13:54 51.22773 6.39515 15995 ft 403 kts 221°
2026-05-05 13:54 51.20709 6.36503 16399 ft 406 kts 221°
2026-05-05 13:54 51.18607 6.33441 16867 ft 408 kts 221°
2026-05-05 13:54 51.16508 6.30384 17300 ft 410 kts 221°
2026-05-05 13:55 51.14387 6.27300 17748 ft 412 kts 221°
2026-05-05 13:55 51.12264 6.24215 18187 ft 415 kts 221°
2026-05-05 13:55 51.10119 6.21103 18558 ft 417 kts 221°
2026-05-05 13:55 51.07971 6.17992 18961 ft 419 kts 221°
2026-05-05 13:56 51.05812 6.14874 19377 ft 421 kts 221°
2026-05-05 13:56 51.03631 6.11731 19751 ft 424 kts 221°
2026-05-05 13:56 51.01373 6.08714 20134 ft 425 kts 214°
2026-05-05 13:56 50.98884 6.06167 20511 ft 426 kts 211°
2026-05-05 13:57 50.96393 6.03711 20887 ft 427 kts 210°
2026-05-05 13:57 50.93854 6.01223 21273 ft 429 kts 210°
2026-05-05 13:57 50.91264 5.98844 21625 ft 430 kts 208°
2026-05-05 13:57 50.88622 5.96573 22012 ft 432 kts 206°
2026-05-05 13:58 50.85958 5.94367 22378 ft 433 kts 206°
2026-05-05 13:58 50.83276 5.92169 22733 ft 435 kts 206°
2026-05-05 13:58 50.80592 5.89952 23106 ft 436 kts 206°
2026-05-05 13:58 50.77904 5.87692 23456 ft 438 kts 207°
2026-05-05 13:59 50.72563 5.83091 24053 ft 441 kts 207°
2026-05-05 13:59 50.69868 5.80748 24337 ft 443 kts 207°
2026-05-05 14:00 50.64437 5.76053 24888 ft 446 kts 207°
2026-05-05 14:00 50.61643 5.73944 25153 ft 446 kts 199°
2026-05-05 14:00 50.59480 5.72866 25360 ft 446 kts 193°
2026-05-05 14:00 50.57788 5.72330 25510 ft 447 kts 188°
2026-05-05 14:01 50.57496 5.72264 25537 ft 447 kts 187°
2026-05-05 14:01 50.54372 5.72020 25768 ft 449 kts 178°
2026-05-05 14:01 50.51258 5.72624 25964 ft 452 kts 168°
2026-05-05 14:01 50.48239 5.74072 26116 ft 451 kts 159°
2026-05-05 14:02 50.45447 5.76256 25914 ft 447 kts 150°
2026-05-05 14:02 50.42895 5.79096 25299 ft 452 kts 142°
2026-05-05 14:02 50.40637 5.82496 24559 ft 461 kts 133°
2026-05-05 14:02 50.38652 5.86491 23973 ft 465 kts 125°
2026-05-05 14:03 50.37047 5.90886 23671 ft 462 kts 117°
2026-05-05 14:03 50.35861 5.95518 23595 ft 454 kts 110°
2026-05-05 14:03 50.35095 6.00269 23523 ft 447 kts 103°
2026-05-05 14:03 50.34733 6.05084 23248 ft 445 kts 95°
2026-05-05 14:04 50.34763 6.09947 22673 ft 449 kts 88°
2026-05-05 14:04 50.35180 6.14821 22042 ft 456 kts 81°
2026-05-05 14:04 50.35988 6.19663 21607 ft 460 kts 74°
2026-05-05 14:04 50.37189 6.24232 21443 ft 458 kts 65°
2026-05-05 14:05 50.38812 6.28555 21348 ft 453 kts 57°
2026-05-05 14:05 50.40730 6.32371 21158 ft 449 kts 50°
2026-05-05 14:05 50.42969 6.35797 20808 ft 450 kts 42°
2026-05-05 14:05 50.45470 6.38772 20377 ft 453 kts 35°
2026-05-05 14:06 50.48192 6.41258 20015 ft 453 kts 27°
2026-05-05 14:06 50.51080 6.43220 19716 ft 450 kts 20°
2026-05-05 14:06 50.54081 6.44644 19472 ft 447 kts 14°
2026-05-05 14:06 50.57135 6.45520 19194 ft 445 kts
2026-05-05 14:07 50.60179 6.45867 18860 ft 443 kts
2026-05-05 14:07 50.63256 6.45705 18535 ft 442 kts 354°
2026-05-05 14:07 50.66309 6.45036 18240 ft 440 kts 348°